Location: Vale
(35.4830°N, 81.3830°W)
Time: 19:03:25
(UTC-04:00)

SR - All Passes

Search period start: 30 March 2015 00:00
Search period end: 09 April 2015 00:00
Orbit: 585 x 877 km, 66.7° (Epoch: 29 March)

Date Brightness Start Highest point End Pass type
(mag) Time Alt. Az. Time Alt. Az. Time Alt. Az.
30 Mar - 01:27:00 10° WSW 01:30:56 23° NW 01:34:32 10° N night (unlit)
30 Mar - 08:29:47 10° NNE 08:31:17 12° NE 08:33:00 10° ENE daylight
30 Mar - 10:09:34 10° NW 10:13:49 63° WSW 10:18:13 10° SSE daylight
30 Mar - 22:57:05 10° SE 23:00:04 16° ESE 23:03:09 10° ENE night (unlit)
31 Mar - 00:37:09 10° SW 00:41:58 47° WNW 00:46:25 10° NNE night (unlit)
31 Mar - 09:20:52 10° NNW 09:25:03 54° ENE 09:29:24 10° SE daylight
31 Mar - 11:05:22 10° W 11:06:48 11° WSW 11:07:58 10° WSW daylight
31 Mar - 23:48:08 10° SSW 23:53:10 79° ESE 23:57:48 10° NNE night (unlit)
01 Apr - 01:34:06 10° WNW 01:35:48 11° NW 01:37:14 10° NNW night (unlit)
01 Apr - 08:32:39 10° N 08:36:07 24° NE 08:39:46 10° ESE daylight
01 Apr - 10:14:31 10° NW 10:18:10 26° WSW 10:21:54 10° SSW daylight
01 Apr - 22:59:55 10° S 23:04:27 35° ESE 23:08:43 10° NE night (unlit)
02 Apr - 00:42:43 10° WSW 00:46:38 23° NW 00:50:13 10° N night (unlit)
02 Apr - 07:45:31 10° NNE 07:46:58 12° NE 07:48:38 10° ENE daylight
02 Apr - 09:25:15 10° NNW 09:29:30 64° WSW 09:33:56 10° SSE daylight
02 Apr - 22:12:52 10° SE 22:15:46 16° ESE 22:18:46 10° ENE night (unlit)
02 Apr - 23:52:52 10° SW 23:57:39 47° WNW 00:02:05 10° NNE night (unlit)
03 Apr - 08:36:33 10° NNW 08:40:44 53° ENE 08:45:07 10° SE daylight
03 Apr - 10:20:55 10° W 10:22:29 11° WSW 10:23:48 10° SW daylight
03 Apr - 23:03:52 10° SSW 23:08:51 78° ESE 23:13:28 10° NNE night (unlit)
04 Apr - 00:49:47 10° WNW 00:51:29 11° NW 00:52:54 10° NNW night (unlit)
04 Apr - 07:48:20 10° N 07:51:47 24° NE 07:55:26 10° ESE daylight
04 Apr - 09:30:10 10° NW 09:33:51 27° WSW 09:37:37 10° SSW daylight
04 Apr - 22:15:39 10° S 22:20:09 34° ESE 22:24:22 10° NE night (unlit)
04 Apr - 23:58:24 10° WSW 00:02:18 23° NW 00:05:53 10° N night (unlit)
05 Apr - 07:01:13 10° NNE 07:02:38 12° NE 07:04:16 10° ENE daylight
05 Apr - 08:40:54 10° NNW 08:45:10 65° WSW 08:49:38 10° SSE daylight
05 Apr - 21:28:39 10° SE 21:31:27 16° ESE 21:34:22 10° ENE night (unlit)
05 Apr - 23:08:34 10° SW 23:13:20 47° WNW 23:17:45 10° NNE night (unlit)
06 Apr - 07:52:12 10° NNW 07:56:24 52° ENE 08:00:47 10° SE daylight
06 Apr - 09:36:27 10° W 09:38:09 12° WSW 09:39:37 10° SW daylight
06 Apr - 22:19:33 10° SSW 22:24:31 77° ESE 22:29:06 10° NNE night (unlit)
07 Apr - 00:05:26 10° WNW 00:07:09 11° NW 00:08:34 10° NNW visible
07 Apr - 07:03:59 10° N 07:07:27 24° NE 07:11:05 10° ESE daylight
07 Apr - 08:45:48 10° NW 08:49:30 27° WSW 08:53:19 10° SSW daylight
07 Apr - 21:31:22 10° S 21:35:48 34° ESE 21:39:59 10° NE night (unlit)
07 Apr - 23:14:04 10° WSW 23:17:57 23° NW 23:21:32 10° N visible
08 Apr - 06:16:54 10° NNE 06:18:16 11° NE 06:19:52 10° ENE visible
08 Apr - 07:56:32 10° NNW 08:00:49 66° WSW 08:05:19 10° SSE daylight
08 Apr - 20:44:24 10° SE 20:47:07 15° ESE 20:49:57 10° ENE visible
08 Apr - 22:24:15 10° SW 22:28:59 48° WNW 22:33:22 10° NNE visible
